Vorticity
nan nan nan nan nan nan nan nan nan nan nan nan nan nan nan nan nan nan nan nan nan nan nan nan nan nan nan nan nan nan nan nan nan nan nan nan nan nan nan nan nan nan nan nan
nan 8 9 10 7 10 9 5 2 8 11 10 10 13 15 10 7 5 7 11 12 6 7 12 11 9 8 7 4 5 6 6 6 7 8 9 9 8 9 7 6 7 8 nan
nan 4 12 15 3 6 8 7 6 9 8 4 9 14 14 7 11 10 9 10 9 8 3 8 11 8 7 7 7 6 7 6 5 6 6 7 8 9 8 8 6 6 9 nan
nan 10 14 11 4 9 8 14 9 8 5 7 6 10 11 10 4 9 11 10 7 6 7 6 7 9 8 8 7 8 8 7 8 8 7 8 7 8 8 9 9 7 8 nan
nan 7 16 10 14 7 10 15 10 4 2 9 8 12 12 17 8 5 12 10 9 8 9 7 7 8 7 8 8 8 10 10 11 8 8 9 9 9 9 9 9 7 9 nan
nan 9 12 7 18 7 7 8 6 10 7 12 14 5 7 20 15 3 12 13 11 9 8 8 8 6 9 9 9 10 9 9 12 11 10 10 9 8 6 8 7 9 8 nan
nan 9 10 12 6 10 8 2 5 8 11 10 14 8 7 5 25 28 12 14 11 9 9 9 9 7 7 9 9 11 9 9 10 9 11 10 10 9 9 8 8 8 7 nan
nan 8 16 10 10 13 4 1 6 11 7 10 10 5 9 13 20 22 16 24 23 15 13 14 12 11 11 10 10 10 9 9 9 9 10 11 10 10 11 11 10 9 9 nan
nan 7 10 9 11 8 10 10 7 6 9 12 4 6 6 8 14 13 13 13 14 17 16 14 15 16 15 13 12 9 8 8 8 11 9 10 10 11 10 8 10 9 9 nan
nan 18 7 9 10 9 13 5 7 11 13 5 9 13 7 4 10 6 7 7 7 8 11 11 9 10 12 13 11 11 10 10 10 9 8 10 8 8 8 7 8 10 9 nan
nan 8 4 9 12 5 3 6 12 16 9 11 9 4 16 17 7 5 5 7 8 8 7 10 10 10 7 8 11 10 9 8 7 7 8 7 8 9 10 9 9 8 8 nan
nan 10 18 5 2 11 14 12 11 7 7 9 11 8 15 15 9 5 8 6 5 7 7 4 8 9 11 10 7 7 7 6 7 8 8 9 9 6 7 10 11 9 9 nan
nan 7 8 11 12 14 11 11 12 7 16 13 4 13 12 10 7 7 8 5 6 5 5 4 9 7 9 9 7 6 8 8 8 8 9 8 8 10 10 10 7 7 8 nan
nan 14 14 11 11 9 6 13 13 10 10 13 7 17 11 7 4 5 6 10 8 7 9 8 10 8 6 7 8 9 9 9 8 8 9 9 9 10 9 7 7 7 7 nan
nan 8 8 13 14 12 9 11 13 13 12 15 16 17 15 9 8 8 7 7 8 9 7 6 7 10 9 8 7 7 7 9 9 9 10 9 9 9 8 8 7 6 6 nan
nan 13 6 6 5 5 5 7 13 12 12 9 13 14 13 11 13 12 8 6 7 7 5 9 10 9 8 8 8 9 10 9 9 10 9 8 8 8 7 8 8 7 7 nan
nan 11 11 8 4 2 0 7 13 15 11 14 12 11 10 12 11 9 7 7 7 8 10 9 9 9 9 10 10 10 9 10 11 9 8 8 8 7 8 7 6 7 10 nan
nan 9 13 13 10 12 7 5 11 10 8 9 16 14 11 9 11 11 8 10 12 10 9 9 10 10 10 11 10 10 11 10 10 9 9 9 8 7 7 7 8 10 11 nan
nan 12 11 11 9 6 12 14 11 6 10 12 6 5 9 8 9 10 15 12 12 11 10 10 8 9 12 12 10 8 8 9 7 8 8 10 10 9 8 9 9 11 10 nan
nan 11 12 10 13 10 7 11 10 9 14 15 9 13 10 3 4 14 16 9 11 11 10 11 9 10 10 9 10 8 7 6 6 9 9 9 10 9 8 9 11 12 9 nan
nan 12 11 11 9 9 16 14 10 10 15 15 17 13 4 3 6 15 12 11 10 12 11 9 12 10 8 8 8 7 8 7 9 9 9 9 10 10 10 10 10 8 9 nan
nan 9 7 9 8 13 10 11 12 4 13 12 13 15 7 8 13 16 10 10 12 10 10 9 9 8 10 9 9 9 6 9 8 9 8 10 10 11 10 10 9 11 12 nan
nan 12 12 10 5 7 12 10 11 13 10 11 12 14 13 9 12 11 12 12 12 8 7 10 10 9 9 11 10 9 7 9 10 9 10 10 10 10 10 10 10 12 12 nan
nan 12 10 9 13 11 11 14 14 14 12 11 11 14 12 11 10 10 12 11 9 10 9 10 10 9 9 12 11 8 10 12 11 9 9 10 10 9 11 12 11 9 9 nan
nan 10 8 4 10 12 9 14 13 12 13 12 12 12 10 9 9 10 9 9 9 9 9 12 10 9 9 10 10 11 11 12 9 9 9 10 11 11 12 12 10 9 8 nan
nan nan nan nan nan nan nan nan nan nan nan nan nan nan nan nan nan nan nan nan nan nan nan nan nan nan nan nan nan nan nan nan nan nan nan nan nan nan nan nan nan nan nan nan
CAPE
100 164 134 15 17 19 72 230 345 266 348 73 50 17 0 0 0 0 0 0 0 0 0 1 65 67 32 50 0 22 119 38 267 458 601 385 543 522 310 334 284 214 414 643
0 0 0 27 10 13 143 302 330 344 299 51 11 5 18 1 0 0 0 0 0 0 12 4 7 78 242 191 1 0 118 3 205 295 303 457 558 469 220 275 560 650 466 595
0 0 0 105 36 35 34 74 248 102 422 156 37 0 0 0 0 0 0 0 3 24 30 40 49 111 367 296 98 0 36 90 167 127 349 586 573 534 382 397 266 363 365 196
8 62 96 70 153 21 51 70 224 472 290 116 21 11 0 0 0 1 0 0 8 66 62 102 131 208 297 378 218 2 23 153 235 205 419 647 526 284 383 102 68 19 189 438
102 0 0 342 396 44 155 137 381 557 49 12 20 1 0 0 6 1 0 0 7 48 65 92 244 345 258 368 278 66 247 218 332 332 452 382 525 455 138 1 0 1 0 378
11 0 0 3 229 132 81 270 34 35 0 77 24 11 16 0 28 29 25 2 3 36 73 89 266 307 333 353 256 329 189 118 145 433 523 444 477 288 50 8 44 66 1 0
0 0 0 0 0 131 189 89 5 112 156 184 0 2 81 0 0 19 28 13 10 50 70 128 269 383 291 247 524 584 276 268 178 304 489 363 419 104 126 45 0 0 0 0
0 0 0 0 0 0 270 0 0 0 24 0 15 50 0 45 0 113 437 253 13 113 84 147 294 455 365 410 919 471 197 24 30 9 5 3 2 0 0 0 0 0 0 0
0 0 0 0 0 0 0 0 0 0 0 0 2 29 163 46 183 260 421 386 590 560 524 639 171 346 601 436 147 120 22 0 0 1 0 0 0 0 0 0 0 0 0 0
0 0 0 0 0 0 0 0 0 0 0 0 0 416 160 210 12 11 22 47 3 2 2 4 124 1 2 2 2 2 2 3 1 0 0 0 0 0 0 0 0 0 0 0
0 0 0 0 0 0 0 0 0 0 0 0 0 302 875 212 19 12 7 4 3 3 4 6 6 3 3 3 7 4 5 2 3 1 0 0 0 0 0 0 0 0 0 0
0 0 0 0 0 0 0 0 0 0 0 0 0 0 430 201 7 2 2 2 1 1 1 2 10 5 4 3 3 4 5 5 9 4 0 0 0 0 0 0 0 0 0 0
0 0 0 0 0 0 0 0 0 0 0 0 0 0 310 179 200 62 4 1 0 1 1 1 1 2 1 1 0 1 2 1 2 0 0 0 0 0 0 0 0 0 0 0
0 0 0 0 0 0 0 0 0 0 0 0 0 367 576 365 272 0 2 2 0 1 0 0 1 0 0 0 0 0 0 0 0 0 0 0 0 0 0 0 0 0 0 0
0 0 0 0 0 0 0 0 132 145 7 0 14 634 673 392 154 0 0 0 0 0 0 0 0 0 0 0 0 0 0 0 0 0 0 0 0 0 0 0 0 0 0 0
0 0 0 0 0 0 0 0 14 96 840 891 864 851 755 279 74 54 6 0 0 0 0 0 0 0 0 0 0 0 0 0 0 0 0 0 0 0 0 0 0 0 0 0
0 0 0 0 0 0 3 0 41 346 481 944 839 720 380 353 253 176 81 64 4 0 0 0 0 0 0 0 0 0 0 0 0 0 0 0 0 0 0 0 0 0 0 0
0 0 0 0 0 0 0 3 25 618 619 594 719 798 653 409 221 152 80 59 9 0 0 0 0 0 0 0 0 0 0 0 0 0 0 0 0 0 0 0 0 0 0 0
0 0 0 0 0 0 2 80 27 74 574 920 1076 745 573 333 255 263 50 0 0 0 0 0 0 0 0 0 0 0 0 0 0 0 0 0 0 0 0 0 0 0 0 0
0 0 0 0 0 5 14 0 2 0 43 917 1066 940 681 443 499 443 58 0 0 0 0 0 0 0 0 0 0 0 0 0 0 0 0 0 0 0 0 0 0 0 0 0
0 0 0 0 0 0 0 0 0 0 13 583 1205 943 772 562 256 104 9 0 0 0 0 0 0 0 0 0 0 0 0 0 0 0 0 0 0 0 0 0 0 0 0 0
0 0 0 0 0 0 0 0 0 0 2 287 665 888 714 137 0 0 0 0 0 0 0 0 0 0 0 0 0 0 0 0 0 0 0 0 0 0 8 0 0 0 0 0
0 0 0 0 0 0 0 0 0 0 29 175 542 256 249 11 0 0 0 0 0 0 0 0 0 0 0 0 0 0 0 0 0 0 0 0 0 0 0 0 0 0 0 0
0 0 0 0 0 0 0 0 0 0 0 0 0 0 0 0 0 0 0 0 0 0 0 0 0 0 0 0 0 0 0 0 0 0 0 0 0 0 0 0 0 0 0 0
0 0 0 0 0 0 0 0 0 0 0 0 0 0 0 0 0 0 0 0 0 0 0 0 0 0 0 0 0 0 0 0 0 0 0 0 0 0 0 0 0 0 0 12
0 0 0 0 0 0 0 0 0 0 0 0 0 0 0 0 0 0 0 0 0 0 0 0 0 0 0 0 0 0 0 0 0 0 0 0 0 0 0 0 0 8 1 9